Date,TemperatureHighF,TemperatureAvgF,TemperatureLowF,DewpointHighF,DewpointAvgF,DewpointLowF,HumidityHigh,HumidityAvg,HumidityLow,PressureMaxIn,PressureMinIn,WindSpeedMaxMPH,WindSpeedAvgMPH,GustSpeedMaxMPH,PrecipitationSumIn
2014-1-16,25.8,24.9,23.8,20.2,18.7,17.1,79,77,75,29.05,29.04,1,1,17,0.00
2014-1-17,23.8,15.2,11.5,17.6,10.9,7.1,89,83,77,29.33,29.05,5,2,17,0.00
2014-1-18,20.2,15.1,9.1,18.8,12.6,6.4,94,90,82,29.31,29.03,8,3,17,0.03
2014-1-19,38.6,23.9,3.8,32.5,20.9,1.0,93,88,77,29.24,28.90,10,5,17,0.03
2014-1-20,36.1,30.6,19.9,30.9,27.2,18.2,93,87,80,29.31,28.95,9,2,17,0.02
2014-1-21,20.1,7.2,-3.5,18.1,2.3,-7.4,93,80,69,29.62,29.31,6,1,17,0.04
2014-1-22,17.6,8.2,-3.9,14.3,3.9,-7.6,87,82,75,29.54,29.24,8,3,17,0.00
2014-1-23,7.8,0.1,-6.5,0.4,-6.0,-11.6,79,75,69,29.94,29.54,3,1,17,0.00
2014-1-24,27.1,12.1,-6.4,25.6,6.4,-11.2,94,78,68,29.91,28.86,16,8,23,0.00
2014-1-25,33.1,20.1,6.7,31.2,12.3,0.1,94,72,51,29.24,28.78,10,3,17,0.00
2014-1-26,35.6,21.9,4.8,30.3,18.1,1.8,92,85,73,29.24,28.76,8,4,17,0.02
2014-1-27,5.0,-1.7,-9.1,1.6,-7.5,-14.5,87,76,68,29.77,29.23,4,1,17,0.02
2014-1-28,9.2,0.2,-11.6,0.8,-7.4,-99.9,81,73,67,29.79,29.58,4,-7,7,0.00
2014-1-29,26.5,13.4,0.0,14.4,5.4,-5.0,81,71,53,29.58,29.36,10,4,16,0.00
2014-1-30,34.2,26.1,19.1,29.8,19.5,11.0,94,76,57,29.37,29.00,17,9,24,0.00
2014-1-31,22.0,20.1,18.7,20.3,16.8,14.9,93,87,79,29.48,29.28,2,0,6,0.04
2014-2-1,32.8,27.9,22.1,31.3,26.5,20.3,96,94,93,29.43,29.16,5,1,7,0.02
2014-2-2,23.6,15.5,-2.3,21.8,11.1,-5.5,93,83,73,29.65,29.42,1,0,6,0.02
2014-2-3,11.5,-0.5,-10.2,6.4,-4.0,-14.1,89,85,78,29.72,29.63,3,0,6,0.00
2014-2-4,21.3,13.7,-1.1,19.2,9.8,-4.3,93,85,68,29.73,29.35,17,3,17,0.03
2014-2-5,26.3,19.5,2.0,25.1,17.4,-0.7,96,92,87,29.78,29.29,20,3,20,0.22
2014-2-6,7.4,-1.4,-9.7,5.1,-5.2,-13.7,90,83,79,29.82,29.74,9,2,9,0.00
2014-2-7,10.5,3.1,-9.5,5.5,-1.2,-13.5,86,82,78,29.77,29.67,7,3,9,0.00
2014-2-8,17.5,13.7,5.9,15.8,10.9,2.3,93,89,83,29.67,29.46,7,2,8,0.04
2014-2-9,19.6,11.8,-7.9,16.2,8.2,-11.4,93,85,76,29.64,29.43,4,0,5,0.07
2014-2-10,9.8,-3.5,-15.8,2.0,-8.9,-19.7,85,77,66,29.81,29.64,5,1,5,0.00
2014-2-11,7.4,-7.4,-16.8,1.4,-11.5,-20.9,86,82,73,29.86,29.68,4,1,4,0.00
2014-2-12,17.8,6.8,-12.4,13.5,3.2,-16.1,89,85,80,29.68,29.35,7,1,7,0.00
2014-2-13,33.3,15.1,-4.3,30.0,11.1,-7.2,90,84,72,29.35,28.91,15,3,16,0.00
2014-2-14,20.4,11.9,5.4,14.4,8.1,2.1,88,85,76,29.12,28.98,5,1,5,0.00
2014-2-17,32.4,29.6,26.6,31.9,28.8,25.6,98,97,96,29.89,29.73,13,3,13,0.18
2014-2-18,40.9,31.1,14.4,33.5,27.7,12.4,96,87,74,30.02,29.69,15,5,17,0.00
2014-2-19,38.4,33.8,30.3,33.1,30.4,27.0,93,88,80,30.03,29.70,5,2,7,0.00
2014-2-20,48.2,37.2,33.8,47.7,35.7,31.5,100,94,84,29.95,29.25,15,7,26,1.20
2014-2-21,37.3,33.4,30.0,32.0,27.0,-99.9,93,79,61,29.89,29.48,14,7,22,0.01
2014-2-22,35.5,30.1,25.9,29.2,24.5,18.3,91,79,66,30.09,29.89,3,1,5,0.00
2014-2-23,29.2,23.0,18.8,18.9,15.2,11.9,78,72,62,30.29,30.09,3,1,6,0.00
2014-2-24,26.2,21.0,15.3,16.9,13.5,10.4,83,73,62,30.36,30.26,4,1,8,0.00
2014-2-25,23.9,16.9,6.9,16.7,10.7,0.1,89,76,63,30.30,30.21,3,1,7,0.00
2014-2-26,20.2,10.7,2.0,11.9,2.7,-3.1,79,70,56,30.31,29.76,9,4,14,0.00
2014-2-27,19.6,10.8,3.2,12.4,1.1,-2.9,77,65,52,30.26,29.75,8,1,15,0.00
2014-2-28,32.5,19.6,3.2,23.5,11.9,-3.0,83,72,54,30.26,30.03,8,4,15,0.00
2014-3-1,30.4,24.7,14.9,26.6,20.4,12.2,91,84,75,30.35,30.03,6,1,9,0.02
2014-3-2,15.2,11.5,5.3,12.1,6.6,-1.8,90,81,71,30.45,30.33,2,1,9,0.14
2014-3-3,16.0,11.7,8.7,7.1,5.1,3.7,82,74,65,30.55,30.41,3,1,5,0.00
2014-3-4,26.8,17.8,10.7,16.9,11.0,5.2,84,75,62,30.42,30.22,5,2,8,0.00
2014-3-5,22.9,20.6,15.7,20.4,17.2,11.5,92,87,75,30.46,30.27,8,4,14,0.08
2014-3-6,27.2,20.1,12.2,20.5,15.4,9.8,91,82,72,30.43,30.13,8,2,10,0.00
2014-3-7,42.6,29.7,12.0,36.4,25.8,9.5,93,86,77,30.13,29.92,6,2,8,0.00
2014-3-8,36.4,31.1,24.2,33.5,27.6,21.5,94,87,77,30.30,29.99,9,3,13,0.09
2014-3-9,41.1,32.6,23.2,35.8,28.8,21.4,95,86,75,30.30,29.88,8,4,13,0.00
2014-3-10,55.1,44.0,37.1,48.3,38.8,33.6,91,82,70,29.89,29.70,7,3,12,0.00
2014-3-11,50.1,41.0,35.2,44.6,37.8,33.3,94,89,72,29.71,29.61,7,2,15,0.00
2014-3-12,33.7,26.3,16.8,30.0,22.4,14.0,95,85,78,30.15,29.85,4,1,8,0.37
2014-3-13,37.2,27.3,14.7,34.6,24.1,12.0,92,87,81,30.20,29.90,10,5,19,0.00
2014-3-14,55.7,42.9,35.4,44.1,36.4,32.1,89,78,58,29.92,29.66,11,5,17,0.00
2014-3-15,44.5,36.3,29.7,33.7,30.5,25.2,91,80,56,30.23,29.91,7,2,16,0.00
2014-3-16,30.6,25.5,21.9,26.4,17.4,11.2,87,71,57,30.32,30.17,11,7,19,0.00
2014-3-17,33.0,22.2,17.2,24.4,15.3,11.2,80,75,66,30.19,29.90,7,4,11,0.00
2014-3-18,42.9,41.1,38.6,40.0,38.2,35.8,92,89,88,29.76,29.69,5,3,9,0.00
2014-3-19,45.3,39.4,34.0,44.2,36.7,28.6,96,90,80,30.04,29.58,8,3,13,0.25
2014-3-20,49.9,39.0,31.1,37.8,32.3,28.6,93,78,54,30.08,30.00,4,1,6,0.00
2014-3-21,59.6,45.8,33.7,49.7,39.2,31.0,91,78,59,30.04,29.70,9,4,13,0.00
2014-3-22,45.7,37.8,30.2,37.8,30.3,23.3,86,75,60,30.32,29.88,2,1,7,0.00
2014-3-23,35.7,28.4,22.2,23.2,17.6,14.5,75,64,49,30.45,30.31,3,1,8,0.00
2014-3-24,38.6,29.0,20.3,24.0,18.8,14.9,87,68,41,30.40,30.13,3,1,6,0.00
2014-3-25,34.4,27.9,22.1,26.7,18.9,11.3,91,70,44,30.29,30.04,4,1,10,0.00
2014-3-26,40.2,29.0,16.6,25.8,18.5,12.5,86,66,48,30.38,30.05,9,4,17,0.00
2014-3-27,52.3,41.9,34.4,49.8,37.0,24.5,93,83,62,30.04,29.48,17,10,23,0.29
2014-3-28,53.9,42.0,35.9,51.2,38.0,31.9,95,86,76,30.20,29.48,15,4,22,0.00
2014-3-29,39.1,34.5,28.8,34.8,30.9,23.7,92,87,78,30.28,30.13,8,3,12,0.00
2014-3-30,55.9,40.7,25.7,40.7,30.8,21.8,89,69,48,30.29,30.07,7,3,13,0.00
2014-3-31,65.3,52.3,38.9,44.6,39.0,34.1,85,63,38,30.07,29.74,14,7,21,0.00
2014-4-1,55.7,44.7,34.1,46.2,34.0,24.8,81,67,49,30.09,29.72,11,5,19,0.00
2014-4-2,47.8,41.7,36.2,37.5,34.1,30.6,87,74,65,30.16,30.00,9,3,17,0.36
2014-4-3,44.5,41.3,37.5,43.5,39.7,33.7,97,94,86,30.01,29.67,9,4,14,0.60
2014-4-4,46.1,39.8,36.6,45.8,36.5,30.4,99,88,75,30.05,29.50,13,7,22,0.01
2014-4-5,51.9,41.1,31.6,33.5,30.5,27.1,89,68,41,30.24,30.05,4,2,7,0.00
2014-4-6,56.2,43.5,32.4,40.5,34.2,27.4,87,71,47,30.18,29.94,7,3,10,0.00
2014-4-7,54.0,45.3,37.2,39.6,35.6,32.6,87,70,46,29.94,29.62,6,2,13,0.02
2014-4-8,61.1,49.1,40.2,49.4,41.6,36.7,95,77,42,29.93,29.66,6,2,9,0.06
2014-4-9,62.0,52.6,37.1,43.7,37.0,31.8,93,59,33,30.05,29.89,7,4,14,0.00
2014-4-10,62.5,54.3,43.7,51.3,43.0,35.3,78,66,55,29.96,29.70,17,5,27,0.00
2014-4-11,70.1,53.5,34.6,40.0,34.0,25.4,84,53,21,30.05,29.95,6,2,12,0.00
2014-4-12,77.5,63.4,47.0,60.0,49.8,36.2,81,62,42,30.03,29.68,17,8,28,0.00
2014-4-13,68.9,64.3,59.9,61.8,58.9,55.1,94,83,73,29.74,29.44,18,9,27,0.25
2014-4-14,63.3,43.4,31.2,60.6,41.0,29.9,96,91,84,30.01,29.36,17,5,26,0.10
2014-4-15,38.2,33.5,28.2,30.0,24.1,16.1,94,70,47,30.24,30.00,5,3,10,0.01
2014-4-16,53.6,41.0,29.9,33.3,29.0,24.8,82,64,39,30.33,30.13,13,7,23,0.00
2014-4-17,61.7,50.0,37.7,44.5,38.0,30.4,77,64,48,30.28,30.14,11,4,14,0.00
2014-4-18,65.6,50.3,37.9,45.4,40.4,32.3,91,71,37,30.35,30.24,8,2,13,0.00
2014-4-19,69.7,51.7,34.4,44.8,38.3,30.0,88,64,33,30.37,30.20,7,3,14,0.00
2014-4-20,78.5,60.8,40.7,47.9,42.6,35.1,83,55,29,30.24,30.02,8,4,13,0.00
2014-4-21,77.2,62.6,53.2,60.2,53.2,45.3,97,73,48,30.02,29.80,9,4,17,0.33
2014-4-22,60.6,51.5,38.9,56.1,41.3,31.9,97,70,38,30.08,29.80,6,3,13,0.01
2014-4-23,58.4,44.7,32.1,38.4,33.4,28.8,90,67,39,30.18,30.00,7,2,12,0.02
2014-4-24,67.6,55.1,42.0,47.7,41.8,38.1,89,64,37,30.05,29.61,12,6,23,0.03
2014-4-25,71.5,58.6,49.7,51.1,45.4,37.2,96,66,33,29.85,29.56,9,4,18,0.01
2014-4-26,60.5,51.5,40.1,45.7,40.0,34.3,84,66,50,29.99,29.83,8,4,17,0.00
2014-4-27,71.0,54.4,40.2,52.1,43.2,35.8,84,68,43,30.00,29.75,10,5,21,0.09
2014-4-28,59.0,51.6,46.0,55.5,48.3,42.0,97,88,79,29.79,29.49,8,5,15,0.68
2014-4-29,64.1,55.6,50.8,57.0,50.5,47.1,99,84,61,29.68,29.45,14,5,23,0.02
2014-4-30,51.4,48.3,45.8,49.3,44.1,38.6,95,86,69,29.82,29.67,9,4,16,0.00
2014-5-1,49.7,46.1,42.5,44.5,42.6,40.3,93,88,77,29.86,29.73,9,5,16,0.05
2014-5-2,53.5,49.0,45.2,46.2,44.6,43.4,94,85,73,29.87,29.71,10,5,14,0.01
2014-5-3,69.2,57.3,43.8,47.6,43.0,37.4,91,63,34,29.90,29.70,9,4,16,0.01
2014-5-4,60.7,54.9,47.5,45.8,37.6,27.3,75,53,34,30.07,29.89,5,2,12,0.00
2014-5-5,66.3,53.5,44.0,44.5,39.0,28.3,79,59,43,30.06,29.85,7,4,15,0.01
2014-5-6,74.8,59.1,42.2,50.8,42.5,37.5,86,57,34,29.97,29.78,12,4,22,0.07
2014-5-7,87.3,71.3,54.2,64.8,55.9,42.1,70,59,45,29.83,29.72,13,7,19,0.00
2014-5-8,90.8,76.6,64.2,65.6,61.4,52.6,86,62,28,29.87,29.74,19,8,30,0.00
2014-5-9,74.5,67.4,54.7,66.8,59.8,47.9,96,78,52,29.88,29.68,13,6,21,0.28
2014-5-10,76.8,63.6,50.0,52.8,47.6,40.7,89,60,32,29.97,29.86,7,2,10,0.00
2014-5-11,84.4,68.7,56.6,67.1,58.4,45.5,96,72,45,29.95,29.80,17,6,35,0.98
2014-5-12,85.1,74.4,63.1,73.4,69.0,61.8,97,84,66,29.90,29.77,16,8,23,0.01
2014-5-13,69.3,59.1,52.4,65.5,56.5,47.9,98,91,85,30.15,29.84,7,3,14,0.33
2014-5-14,57.1,51.7,43.6,47.7,45.0,41.4,92,78,66,30.16,29.97,4,1,11,0.06
2014-5-15,56.2,47.6,43.4,46.2,43.2,41.2,96,86,62,30.05,29.87,4,2,9,0.11
2014-5-16,45.1,42.2,41.0,42.4,40.1,39.1,96,92,85,30.13,29.97,8,2,15,0.51
2014-5-17,59.5,49.5,39.0,43.8,39.1,34.2,95,70,40,30.21,30.10,5,2,13,0.00
2014-5-18,66.5,55.7,43.2,46.8,42.5,37.8,84,63,42,30.28,30.18,7,4,12,0.00
2014-5-19,70.5,59.9,46.7,51.4,46.6,42.0,85,63,43,30.23,29.93,12,6,20,0.00
2014-5-20,85.4,72.9,59.4,68.1,62.1,50.9,87,70,55,29.97,29.79,15,7,22,0.00
2014-5-21,88.8,77.4,68.1,71.3,63.6,54.6,90,65,34,29.91,29.76,10,2,15,0.00
2014-5-22,74.8,65.9,55.8,58.3,52.5,47.1,84,64,38,30.10,29.91,4,1,8,0.00
2014-5-23,75.6,62.1,50.4,57.2,50.2,45.4,93,67,42,30.18,30.09,7,2,17,0.00
2014-5-24,76.3,62.5,45.8,53.0,47.4,42.0,94,62,31,30.23,30.09,3,1,8,0.00
2014-5-25,83.7,70.6,54.3,58.5,52.5,48.4,87,57,31,30.13,29.98,8,3,11,0.00
2014-5-26,89.8,74.6,62.1,68.3,63.3,56.3,95,70,43,30.04,29.85,8,4,17,0.71
2014-5-27,83.3,74.1,67.2,71.7,66.9,63.6,94,80,54,29.94,29.84,6,3,10,0.00
2014-5-28,83.8,68.9,58.1,70.8,63.7,53.3,98,84,60,30.01,29.88,6,2,11,0.02
2014-5-29,83.3,68.5,56.7,69.3,61.3,53.6,98,79,58,30.08,29.99,6,3,16,0.00
2014-5-30,85.6,71.3,58.2,61.3,56.6,50.3,92,63,30,30.15,30.05,6,3,15,0.00
2014-5-31,88.3,75.6,59.4,59.6,55.2,49.3,87,54,28,30.15,30.00,7,3,15,0.00
2014-6-1,88.8,75.7,63.1,69.2,62.7,55.4,87,66,46,30.05,29.87,15,6,33,0.01
2014-6-2,85.3,77.2,71.2,70.6,67.0,62.7,90,72,49,29.90,29.78,19,8,27,0.00
2014-6-3,83.9,75.4,67.2,67.0,58.4,50.6,90,59,33,29.95,29.84,5,2,13,0.00
2014-6-4,71.2,63.8,57.2,62.9,60.0,54.3,97,88,56,29.89,29.68,7,2,15,0.92
2014-6-5,76.8,64.7,52.0,58.6,52.0,44.3,98,67,36,29.98,29.88,5,2,10,0.00
2014-6-6,83.7,69.4,53.8,59.0,51.3,43.8,82,55,34,29.99,29.91,5,1,10,0.00
2014-6-7,82.2,70.9,59.7,63.6,56.5,49.5,95,63,38,29.99,29.76,8,2,17,0.43
2014-6-8,75.3,65.0,56.1,64.6,56.4,41.6,96,75,44,30.03,29.72,14,2,17,0.19
2014-6-9,80.5,67.0,52.3,64.9,55.5,46.6,87,68,43,30.00,29.85,6,2,11,0.00
2014-6-10,67.0,62.8,60.1,63.5,60.4,55.5,98,92,84,29.88,29.67,7,3,12,1.14
2014-6-11,68.5,64.5,62.5,64.4,62.7,61.0,99,94,86,29.75,29.63,6,2,9,0.01
2014-6-12,69.0,63.9,61.0,63.0,60.9,56.4,94,90,80,29.86,29.72,3,1,7,0.00
2014-6-13,75.7,64.3,52.0,56.4,48.2,41.0,88,59,30,30.02,29.85,3,1,13,0.00
2014-6-14,77.5,66.1,53.6,52.5,48.3,43.1,79,56,31,30.11,29.95,8,4,17,0.00
2014-6-15,84.8,72.6,58.6,70.2,60.8,51.5,81,68,54,29.98,29.78,18,8,30,0.00
2014-6-16,87.8,77.2,64.7,72.1,68.2,62.5,94,75,49,30.05,29.85,8,4,17,0.00
2014-6-17,90.5,81.7,75.5,76.7,72.2,69.6,86,74,59,29.92,29.79,14,7,20,0.00
2014-6-18,87.5,75.7,66.3,75.6,70.2,63.6,92,84,58,29.99,29.78,9,4,14,0.08
2014-6-19,85.5,73.9,64.9,76.9,69.1,62.8,98,86,69,30.05,29.94,8,2,14,1.47
2014-6-20,83.8,75.3,68.6,74.3,70.5,67.0,98,86,63,30.01,29.88,4,2,11,0.01
2014-6-21,84.8,70.2,63.3,73.5,66.7,62.3,99,90,64,29.97,29.81,7,2,14,1.06
2014-6-22,85.0,74.1,63.9,73.9,68.5,63.0,98,84,61,29.90,29.81,5,1,8,0.05
2014-6-23,83.3,75.1,69.0,76.1,70.8,67.1,96,87,70,29.85,29.77,5,1,9,0.03
2014-6-24,85.9,75.5,69.6,73.4,70.3,67.0,98,85,58,29.88,29.80,4,1,7,0.09
2014-6-25,84.0,72.9,62.4,72.9,66.6,61.0,96,82,56,30.03,29.86,5,1,13,0.00
2014-6-26,82.7,70.2,61.6,72.0,66.1,61.0,99,88,67,30.06,29.94,3,2,8,0.00
2014-6-27,86.1,76.2,65.7,72.9,69.1,64.8,97,80,59,30.00,29.93,9,4,15,0.00
2014-6-28,86.0,77.2,71.0,74.2,71.6,68.3,95,84,65,30.01,29.88,10,5,17,0.00
2014-6-29,84.7,77.0,67.9,74.9,71.9,66.4,96,85,71,29.97,29.84,9,6,17,0.12
2014-6-30,85.3,75.0,64.2,79.1,71.9,63.3,98,90,79,29.90,29.63,12,5,19,1.19
2014-7-1,81.5,74.0,64.7,69.9,66.9,64.1,98,80,58,29.79,29.64,7,4,15,0.01
2014-7-2,70.1,65.8,60.9,66.0,60.4,57.3,95,83,69,30.00,29.78,5,2,9,0.00
2014-7-3,76.0,65.3,57.1,60.3,56.9,52.1,98,76,48,30.19,30.00,3,1,9,0.02
2014-7-4,79.8,67.8,53.6,62.8,57.1,51.1,92,71,45,30.29,30.19,2,0,7,0.00
2014-7-5,76.9,69.0,59.3,64.3,59.5,55.5,89,73,51,30.25,30.06,9,3,16,0.00
2014-7-6,84.8,73.8,62.4,75.9,68.5,59.9,93,84,66,30.06,29.74,11,5,17,0.00
2014-7-7,86.6,78.1,70.4,75.9,71.2,68.3,94,81,58,29.74,29.66,7,2,12,0.30
2014-7-8,80.0,74.1,64.5,72.4,66.3,61.5,96,78,56,29.83,29.59,8,3,16,0.21
2014-7-9,79.2,69.3,60.9,65.3,60.8,56.8,95,76,54,30.04,29.82,3,1,9,0.00
2014-7-10,79.3,70.5,57.9,63.4,58.8,54.5,93,68,48,30.17,30.04,3,1,11,0.00
2014-7-11,80.1,70.1,56.0,65.0,59.8,53.4,91,72,49,30.20,30.06,6,2,11,0.00
2014-7-12,81.6,74.2,68.1,77.8,71.0,64.0,98,90,77,30.10,29.84,8,5,14,2.55
2014-7-13,83.0,75.2,69.7,74.7,70.2,67.7,97,85,62,29.94,29.82,7,2,10,0.04
2014-7-14,79.1,70.9,59.3,72.9,63.8,54.5,96,80,52,29.88,29.75,7,2,13,0.00
2014-7-15,68.9,61.0,52.8,58.0,54.7,50.5,93,80,61,29.97,29.85,4,2,11,0.00
2014-7-16,73.3,62.9,51.8,60.1,55.6,50.7,97,79,55,30.03,29.96,3,1,7,0.00
2014-7-17,77.5,65.7,53.1,63.4,57.8,51.3,95,77,53,30.10,30.03,4,1,6,0.00
2014-7-18,77.1,67.7,58.2,63.3,59.7,56.2,95,77,55,30.16,30.06,6,2,10,0.00
2014-7-19,78.7,67.9,55.9,65.6,60.5,54.5,96,79,53,30.08,29.98,3,0,5,0.00
2014-7-20,80.2,70.3,59.0,66.8,62.7,57.3,95,78,57,30.06,29.98,4,1,6,0.00
2014-7-21,82.1,72.7,61.3,70.9,65.9,59.6,95,80,62,30.09,30.00,6,2,9,0.00
2014-7-22,86.3,76.6,65.6,77.8,71.2,63.1,93,84,70,30.05,29.91,9,4,15,0.00
2014-7-23,76.9,68.8,56.4,75.0,60.7,52.6,97,77,51,30.11,29.93,6,2,14,0.01
2014-7-24,76.8,64.9,53.9,61.9,55.9,51.9,96,75,49,30.15,30.02,4,1,9,0.00
2014-7-25,73.2,65.1,55.3,63.8,59.2,52.4,92,82,69,30.09,29.89,11,4,18,0.00
2014-7-26,80.0,73.0,66.3,75.2,69.2,62.3,95,88,81,29.91,29.74,6,2,11,0.00
2014-7-27,83.3,74.5,64.5,75.2,67.1,59.2,99,79,51,29.85,29.71,7,2,15,0.01
2014-7-28,72.4,65.0,56.9,62.0,56.4,51.3,92,75,49,30.07,29.85,4,1,8,0.00
2014-7-29,78.3,64.5,53.5,63.2,58.3,51.8,95,82,55,30.07,29.99,4,1,9,0.15
2014-7-30,78.8,68.4,58.6,65.6,62.1,57.3,97,82,61,30.03,29.97,3,1,8,0.00
2014-7-31,80.1,69.2,56.5,70.3,62.8,55.4,96,81,61,30.05,30.00,4,2,9,0.05
2014-8-1,82.5,68.9,61.3,68.4,63.1,59.3,95,83,52,30.12,30.01,6,1,10,0.04
2014-8-2,82.6,69.9,57.7,68.9,62.9,56.8,98,80,54,30.14,30.04,3,0,4,0.01
2014-8-3,83.8,72.8,60.9,71.0,65.8,59.3,95,80,55,30.15,30.04,4,1,7,0.00
2014-8-4,82.8,72.8,62.7,73.6,67.1,60.9,95,83,62,30.10,29.98,5,1,7,0.09
2014-8-5,80.5,72.3,67.0,72.5,68.1,65.0,97,87,72,30.03,29.98,4,1,7,0.00
2014-8-6,79.9,69.3,61.7,69.1,64.0,58.6,98,84,65,30.06,29.99,3,0,7,0.00
2014-8-7,77.1,68.3,60.0,67.0,62.0,57.3,95,81,64,30.06,29.98,6,2,15,0.00
2014-8-8,81.1,71.4,64.4,66.9,62.8,59.0,91,75,55,30.03,29.97,6,3,14,0.00
2014-8-9,82.7,71.9,63.5,66.1,62.2,58.3,92,73,52,30.05,29.98,6,2,13,0.00
2014-8-10,79.1,72.1,65.1,71.9,66.1,60.6,87,82,72,30.01,29.91,4,1,9,0.00
2014-8-11,83.1,71.6,65.8,73.0,68.0,63.4,98,89,66,29.91,29.76,4,1,6,0.39
2014-8-12,70.8,64.9,60.4,63.3,60.7,57.5,95,87,71,29.96,29.74,4,2,10,0.00
2014-8-13,80.9,68.0,52.8,66.4,60.8,51.4,96,79,57,30.05,29.96,4,1,8,0.01
2014-8-14,76.1,65.4,53.1,64.4,58.2,49.6,96,79,59,30.07,29.99,7,1,14,0.00
2014-8-15,74.3,65.5,51.1,63.7,55.7,47.6,92,73,50,30.09,29.96,5,1,9,0.00
2014-8-16,77.1,68.3,59.4,71.4,65.0,57.1,94,89,76,29.96,29.87,6,2,9,0.10
2014-8-17,77.7,69.9,64.1,71.1,66.5,62.9,97,89,76,29.93,29.88,5,2,10,0.00
2014-8-18,80.4,71.0,65.1,72.0,67.7,64.0,98,90,73,29.91,29.76,4,1,8,0.00
2014-8-19,81.3,72.6,67.4,74.0,69.1,65.7,97,89,71,29.79,29.69,10,3,19,0.21
2014-8-20,82.3,72.6,63.3,74.0,68.3,62.4,98,87,68,29.94,29.77,6,2,11,0.00
2014-8-21,85.2,76.0,69.5,78.7,72.9,68.3,98,91,77,29.95,29.86,7,2,13,0.06
2014-8-22,83.5,76.0,71.0,77.5,73.4,70.0,98,92,76,29.95,29.85,7,2,12,1.35
2014-8-23,84.3,73.5,69.9,77.6,71.6,68.8,99,94,78,30.00,29.87,8,1,15,0.21
2014-8-24,86.0,76.0,67.9,79.9,73.6,67.6,99,93,80,29.98,29.91,5,2,9,0.00
2014-8-25,91.2,76.9,69.4,82.8,73.4,65.7,98,89,69,30.02,29.93,9,3,24,1.56
2014-8-26,83.8,75.6,67.0,78.1,71.6,65.4,95,88,72,30.09,29.98,6,1,11,0.00
2014-8-27,82.5,73.5,65.0,72.5,67.7,62.3,95,83,67,30.10,30.03,4,1,9,0.00
2014-8-28,81.3,72.3,62.6,69.2,65.5,59.3,96,80,62,30.09,29.98,4,2,9,0.08
2014-8-29,84.5,75.2,69.2,77.0,71.5,67.4,95,89,74,30.00,29.83,7,4,11,0.02
2014-8-30,82.8,75.3,68.1,75.2,71.2,64.7,95,87,74,29.90,29.81,10,6,19,0.00
2014-8-31,83.2,74.6,67.2,74.6,70.8,65.7,98,89,71,29.92,29.82,7,3,11,0.00
2014-9-1,82.3,75.1,69.5,73.5,70.3,67.0,96,86,64,29.86,29.71,9,5,18,0.00
2014-9-2,81.6,73.0,66.1,70.9,66.8,62.5,97,82,55,29.96,29.82,5,1,8,0.38
2014-9-3,82.8,72.2,61.6,69.9,65.7,60.4,97,81,60,30.02,29.92,6,2,11,0.00
2014-9-4,85.7,75.1,69.5,76.9,70.7,66.0,97,86,68,30.06,29.87,12,5,19,0.22
2014-9-5,88.4,77.0,62.4,78.3,72.5,61.0,96,87,69,30.05,29.81,9,4,15,0.44
2014-9-6,74.6,65.1,57.6,63.7,58.7,54.5,97,81,55,30.17,30.02,2,0,7,0.00
2014-9-7,77.5,64.9,54.0,61.3,56.1,51.4,93,75,46,30.21,30.09,4,1,6,0.00
2014-9-8,76.8,65.4,53.3,61.9,56.6,51.8,96,75,49,30.13,29.97,6,2,9,0.00
2014-9-9,79.9,68.6,60.8,69.2,63.5,57.0,96,85,67,30.02,29.83,11,4,14,0.33
2014-9-10,78.5,70.6,59.9,75.1,67.6,56.2,97,90,77,29.83,29.55,16,6,25,1.41
2014-9-11,59.7,53.8,50.8,56.1,49.6,46.8,90,86,81,30.27,29.83,2,0,7,0.00
2014-9-12,56.8,51.2,45.7,53.4,48.7,44.3,96,91,84,30.31,30.21,3,1,10,0.04
2014-9-13,60.4,48.8,38.5,48.5,43.2,37.5,97,82,56,30.38,30.28,3,1,9,0.01
2014-9-14,67.8,53.8,39.1,50.1,44.8,38.1,98,74,46,30.34,30.17,5,1,15,0.01
2014-9-15,56.6,53.7,48.1,55.2,51.9,45.1,98,93,83,30.19,30.05,4,1,8,0.29
2014-9-16,68.3,55.9,43.7,54.5,48.6,43.2,99,79,48,30.22,30.08,3,0,10,0.01
2014-9-17,71.1,57.7,43.5,55.3,49.4,42.2,97,76,51,30.08,29.94,4,1,10,0.00
2014-9-18,72.6,59.7,47.0,56.2,51.6,45.1,96,77,45,30.13,30.02,6,2,14,0.00
2014-9-19,75.4,61.8,48.1,55.8,51.1,47.0,97,72,38,30.15,29.95,8,4,18,0.01
2014-9-20,82.0,68.8,55.4,72.1,63.4,52.4,95,83,67,29.96,29.75,12,5,24,0.04
2014-9-21,70.2,61.8,50.7,68.1,55.8,49.0,95,81,62,30.13,29.73,6,2,20,0.00
2014-9-22,68.4,55.4,43.8,52.5,47.5,42.5,97,77,49,30.29,30.13,2,0,7,0.01
2014-9-23,74.9,59.0,45.2,53.6,48.4,42.7,94,71,41,30.35,30.24,4,1,8,0.00
2014-9-24,77.4,61.5,46.9,56.5,50.2,45.5,96,71,36,30.34,30.23,5,1,12,0.00
2014-9-25,78.8,63.5,51.8,60.5,53.3,49.1,94,72,38,30.28,30.18,4,1,9,0.00
2014-9-26,82.9,66.9,51.9,60.7,54.8,50.5,96,69,35,30.24,30.16,3,1,8,0.00
2014-9-27,81.5,67.2,54.8,62.3,57.0,53.0,95,73,44,30.23,30.11,4,1,11,0.00
2014-9-28,82.6,67.0,51.0,62.4,55.4,48.5,97,71,33,30.15,30.03,3,0,8,0.00
2014-9-29,84.8,67.3,51.2,63.1,56.9,50.1,97,73,41,30.04,29.90,5,1,15,0.00
2014-9-30,64.9,56.9,49.9,55.5,50.9,47.1,90,81,64,30.02,29.95,5,2,15,0.00
2014-10-1,77.6,61.4,45.1,61.5,53.2,43.7,96,77,54,30.00,29.84,7,3,16,0.00
2014-10-2,74.5,67.3,63.4,67.6,64.5,61.2,98,91,78,29.87,29.59,8,2,16,1.04
2014-10-3,66.8,55.7,45.0,66.2,50.3,30.5,98,83,56,29.84,29.47,9,5,22,0.72
2014-10-4,49.2,42.2,35.5,37.2,34.2,30.2,92,74,57,29.82,29.75,9,5,22,0.01
2014-10-5,56.2,48.0,37.4,43.0,38.7,34.2,88,71,51,29.80,29.65,8,4,18,0.00
2014-10-6,63.8,53.4,45.1,50.5,41.8,36.5,88,67,39,29.71,29.59,9,4,20,0.00
2014-10-7,69.8,56.8,45.1,55.0,47.7,39.3,91,73,46,29.88,29.64,8,4,19,0.02
2014-10-8,67.3,54.2,42.8,45.1,39.7,32.2,92,63,31,30.07,29.88,6,2,17,0.00
2014-10-9,63.8,54.4,46.3,50.9,45.9,40.1,96,75,47,30.14,30.01,4,1,10,0.07
2014-10-10,59.8,50.5,41.8,44.6,42.0,39.1,92,74,54,30.18,30.09,5,1,13,0.00
2014-10-11,62.0,47.7,36.2,44.8,37.7,34.7,96,72,40,30.26,30.14,5,1,11,0.00
2014-10-12,63.2,50.8,36.4,55.7,45.6,34.0,96,83,61,30.15,29.86,8,3,15,0.01
2014-10-13,69.5,62.9,56.8,67.2,61.6,55.7,99,96,88,29.87,29.51,12,4,23,0.32
2014-10-14,64.7,60.6,55.0,62.1,58.4,53.6,97,93,82,29.62,29.43,10,4,16,0.21
2014-10-15,56.0,53.1,51.3,55.2,52.4,50.8,98,97,95,29.82,29.62,3,0,6,0.11
2014-10-16,54.8,53.6,52.5,54.0,52.3,50.4,97,95,92,29.82,29.63,6,2,10,0.01
2014-10-17,60.6,54.4,48.1,52.0,49.4,46.3,96,84,70,29.91,29.58,8,4,16,0.01
2014-10-18,52.4,48.3,41.0,48.8,43.8,36.9,92,84,74,30.22,29.88,4,1,8,0.02
2014-10-19,56.3,46.2,33.7,46.5,40.9,32.6,96,83,67,30.25,29.93,8,3,13,0.00
2014-10-20,67.6,55.6,48.3,53.2,48.1,44.8,92,77,51,29.99,29.83,6,3,11,0.00
2014-10-21,57.1,50.3,44.4,48.6,43.3,38.3,94,78,57,30.26,29.99,5,2,11,0.00
2014-10-22,60.5,46.5,35.2,43.9,38.3,33.6,96,76,46,30.37,30.25,3,1,8,0.00
2014-10-23,60.5,47.8,33.9,46.9,41.0,32.4,96,79,55,30.27,30.06,8,3,16,0.00
2014-10-24,69.7,57.6,46.1,54.5,49.2,43.8,93,75,45,30.08,29.91,7,3,11,0.00
2014-10-25,75.2,60.7,47.7,58.7,47.3,34.8,97,67,24,29.98,29.89,6,3,12,0.00
2014-10-26,67.9,53.1,38.0,40.1,34.2,26.0,81,53,22,30.05,29.82,4,2,7,0.00
2014-10-27,77.8,66.1,51.9,62.9,55.0,38.0,89,68,54,29.84,29.59,14,7,22,0.00
2014-10-28,65.6,55.2,43.5,59.0,45.4,37.6,95,71,45,30.00,29.66,12,6,17,0.28
2014-10-29,47.3,43.6,37.3,38.8,36.1,32.3,87,75,62,30.16,29.99,6,3,12,0.00
2014-10-30,50.6,41.7,31.2,40.2,35.8,28.9,93,80,62,30.17,30.06,7,2,13,0.00
2014-10-31,45.7,40.2,35.1,41.5,30.9,23.9,90,70,54,30.34,30.03,7,4,16,0.00
2014-11-1,47.2,37.7,28.6,32.5,27.9,25.1,90,68,52,30.45,30.33,7,2,16,0.00
2014-11-2,52.3,39.8,23.4,32.1,27.7,21.1,94,66,36,30.46,30.21,10,5,17,0.00
2014-11-3,66.0,54.4,42.3,48.0,38.0,30.3,65,54,43,30.21,29.97,15,9,23,0.00
2014-11-4,58.4,49.1,40.7,52.2,43.6,37.8,95,82,53,30.12,29.92,13,7,22,0.06
2014-11-5,63.4,48.7,35.0,45.5,39.9,33.3,95,75,41,30.17,29.88,10,5,20,0.00
2014-11-6,48.5,43.6,38.5,47.1,37.8,29.5,95,80,67,30.23,29.80,7,5,15,0.05
2014-11-7,44.3,39.1,32.4,34.9,31.2,26.8,84,73,62,30.24,29.82,8,3,14,0.00
2014-11-8,48.4,42.6,32.9,41.2,34.3,27.7,90,73,53,30.01,29.75,10,4,15,0.00
2014-11-9,52.3,41.3,28.7,38.9,33.5,25.0,88,75,56,29.99,29.79,14,6,23,0.00
2014-11-10,63.1,52.4,42.4,47.5,43.3,37.8,88,72,56,29.83,29.54,17,9,29,0.00
2014-11-11,58.0,42.0,32.5,49.0,37.3,25.6,95,84,66,30.18,29.58,15,7,21,0.35
2014-11-12,32.5,27.3,24.7,25.7,20.4,17.5,79,75,71,30.36,30.18,6,4,14,0.00
2014-11-13,29.0,25.3,19.1,23.0,19.7,16.1,91,79,65,30.37,30.33,6,4,13,0.00
2014-11-14,27.6,22.4,14.9,21.3,16.6,12.0,91,79,63,30.43,30.36,5,2,8,0.00
2014-11-15,30.6,24.7,16.1,23.0,18.0,12.7,88,76,61,30.44,30.24,6,2,9,0.00
2014-11-16,32.1,29.0,22.6,28.1,25.6,18.6,92,87,82,30.24,29.95,7,4,11,0.00
2014-11-17,23.7,17.0,12.9,18.3,9.5,3.8,86,72,53,30.09,29.91,12,7,23,0.00
2014-11-18,20.0,15.2,10.7,10.1,7.8,6.1,83,72,58,30.22,30.08,11,7,20,0.00
2014-11-19,28.3,23.3,15.6,19.0,15.2,10.1,80,71,63,30.13,29.91,13,8,23,0.00
2014-11-20,31.5,21.4,10.5,17.4,12.2,4.8,86,69,44,30.39,30.08,10,5,19,0.00
2014-11-21,36.2,23.0,6.4,20.9,10.0,2.1,84,60,34,30.52,30.22,9,4,15,0.00
2014-11-22,52.8,44.3,33.0,48.9,40.9,20.7,94,88,53,30.23,29.86,14,9,20,0.04
2014-11-23,51.5,49.0,46.0,50.1,46.9,42.6,98,93,85,29.87,29.11,12,6,19,0.64
2014-11-24,49.2,36.2,28.5,48.9,34.6,25.0,99,94,85,29.89,29.08,15,10,30,0.53
2014-11-25,28.9,24.1,20.4,25.5,20.4,17.3,91,86,81,30.25,29.89,10,5,16,0.00
2014-11-26,28.3,24.7,18.7,24.2,21.4,16.8,94,87,81,30.24,30.13,7,2,12,0.00
2014-11-27,28.1,23.5,12.7,24.3,20.0,10.1,91,86,75,30.46,30.24,5,3,13,0.00
2014-11-28,36.5,26.8,12.9,31.8,23.0,10.5,90,86,74,30.44,29.90,12,6,19,0.00
2014-11-29,52.5,42.8,33.2,48.1,39.7,30.0,96,89,80,29.90,29.65,15,7,23,0.00
2014-11-30,57.4,43.3,29.1,55.1,41.3,23.5,97,93,78,30.30,29.66,11,6,16,0.01
2014-12-1,28.9,23.5,20.7,23.2,13.8,6.2,84,67,47,30.66,30.29,8,3,13,0.00
2014-12-2,31.4,26.2,16.6,28.9,23.2,13.8,94,88,84,30.56,30.13,7,4,13,0.00
2014-12-3,38.8,29.1,22.6,26.8,23.4,18.9,92,80,54,30.42,30.13,8,3,15,0.00
2014-12-4,34.0,29.4,22.4,28.8,24.3,18.8,89,81,69,30.44,30.27,5,2,10,0.00
2014-12-5,39.8,35.7,32.5,36.9,33.8,28.8,97,93,85,30.28,30.16,7,2,10,0.00
2014-12-6,42.4,35.0,27.6,35.9,31.6,25.0,95,88,70,30.66,30.22,5,1,10,0.00
2014-12-7,34.4,30.2,24.8,29.7,26.9,21.4,93,88,81,30.67,30.31,10,4,16,0.00
2014-12-8,37.7,34.2,30.8,37.2,32.8,28.8,98,95,90,30.31,30.03,8,4,14,0.17
2014-12-9,38.1,34.6,32.2,36.0,32.7,29.1,97,93,85,30.40,30.13,5,3,10,0.01
2014-12-10,35.3,32.7,31.0,30.9,28.9,27.3,89,86,80,30.42,30.28,3,1,6,0.00
2014-12-11,30.9,27.3,23.7,27.2,24.5,22.0,93,89,83,30.31,30.27,6,3,12,0.00
2014-12-12,34.7,29.7,21.0,33.3,28.6,19.3,97,95,92,30.39,30.28,6,3,9,0.00
2014-12-13,34.8,34.6,34.2,33.5,33.3,32.9,95,95,95,30.28,30.27,3,1,4,0.00
2014-12-14,45.6,45.5,45.5,45.1,45.0,45.0,98,98,98,30.02,30.01,10,10,17,0.00
2014-12-15,45.6,44.2,41.4,45.3,43.8,40.9,99,99,98,30.01,29.65,12,7,17,0.22
2014-12-16,45.0,38.5,29.6,44.7,37.2,26.5,99,95,87,30.19,29.64,11,6,19,0.04
2014-12-17,29.6,25.7,23.6,26.4,21.7,19.5,90,85,80,30.34,30.19,8,4,16,0.00
2014-12-18,27.9,23.9,19.2,22.6,20.3,16.7,92,86,78,30.36,30.27,3,1,6,0.00
2014-12-19,34.6,26.4,16.9,28.0,23.2,14.9,93,88,76,30.37,30.29,4,1,5,0.00
2014-12-20,33.5,30.6,26.5,29.8,27.9,24.8,94,90,82,30.33,30.26,6,2,7,0.00
2014-12-21,37.9,33.4,31.4,33.5,30.6,29.1,93,90,83,30.28,30.02,10,6,17,0.00
2014-12-22,43.1,36.1,30.7,42.6,34.9,28.7,98,95,92,30.02,29.56,11,7,15,0.42
2014-12-23,47.5,44.2,39.6,46.7,42.0,38.1,99,92,81,29.78,29.53,10,5,19,0.01
2014-12-24,39.6,37.4,35.6,38.6,36.2,34.2,97,95,92,29.72,29.52,7,3,12,0.15
2014-12-25,44.5,37.5,32.6,39.0,34.4,30.5,93,89,79,30.05,29.71,12,7,19,0.00
2014-12-26,53.0,42.9,34.7,46.0,39.6,32.6,95,88,75,30.08,30.01,14,7,19,0.00
2014-12-27,48.9,40.2,29.3,48.1,38.1,27.0,98,92,85,30.16,29.99,13,7,20,0.01
2014-12-28,32.2,26.9,23.1,26.9,21.9,19.3,91,82,61,30.29,30.14,6,2,9,0.00
2014-12-29,33.9,26.7,20.3,29.9,22.9,17.6,93,86,76,30.51,30.28,6,1,9,0.00
2014-12-30,25.8,17.1,10.4,20.2,9.8,3.6,88,73,50,30.72,30.51,5,2,9,0.00
2014-12-31,20.7,13.1,4.5,9.4,5.0,0.1,84,70,52,30.68,30.26,10,5,17,0.00
2015-1-1,29.7,22.5,15.0,19.5,14.3,8.8,80,71,59,30.26,30.07,11,6,20,0.00
2015-1-2,35.4,26.6,17.8,27.3,21.5,14.4,88,81,66,30.38,30.16,5,2,7,0.00